Location: ?????
(32.7281°N, 34.9563°E)
Time: 01:43:58
(UTC+00:00)

Okean-O - Visible Passes

Search period start: 27 February 2021 00:00
Search period end: 09 March 2021 00:00
Orbit: 638 x 641 km, 98.2° (Epoch: 26 February)

Date Brightness Start Highest point End Pass type
(mag) Time Alt. Az. Time Alt. Az. Time Alt. Az.
27 Feb 3.0 16:45:26 10° S 16:49:50 68° WSW 16:54:15 10° NNW visible
28 Feb 4.3 17:09:10 10° SSW 17:13:12 35° W 17:17:14 10° NNW visible
01 Mar 3.4 15:56:19 10° SE 16:00:10 30° ENE 16:04:01 10° N visible
01 Mar 5.3 17:33:30 10° SW 17:36:37 19° W 17:39:45 10° NW visible
02 Mar 2.7 16:19:03 10° SSE 16:23:22 56° ENE 16:27:43 10° N visible
03 Mar 2.8 16:42:14 10° S 16:46:39 75° WSW 16:51:05 10° NNW visible
04 Mar 4.1 17:05:53 10° SSW 17:10:00 38° W 17:14:08 10° NNW visible
05 Mar 5.2 17:30:06 10° SW 17:33:25 21° W 17:36:44 10° NW visible
06 Mar 2.8 16:15:56 10° SSE 16:20:12 51° ENE 16:24:30 10° N visible
06 Mar 5.9 17:55:48 10° WSW 17:56:54 11° W 17:57:59 10° WNW visible
07 Mar 2.7 16:39:03 10° S 16:43:28 83° W 16:47:55 10° NNW visible
08 Mar 3.9 17:02:37 10° S 17:06:48 42° W 17:11:01 10° NNW visible
